www.pogodaiklimat.ru

Погода и климат >> Архив погоды >> Соломоновы Острова >> Хониара


ПОГОДА в Хониаре

  • Прогноз погоды в Хониаре
  • Монитор погоды в Хониаре

АРХИВ ПОГОДЫ в Хониаре

Время (UTC), дата Ветер
(напр.,м/с)
 
Видим.   Явления Облачность Т
(С)
Тd
(С)
f
(%)
Тe
(С)
Тes
(С)
Комфортность P
(гПа)
Po
(гПа)
Тmin
(С)
Tmax
(С)
R
(мм)
R24
(мм)
S
(см)
03 17.03 СВ 3 30 км 8/3 500 м
[Cb cap Cs]
+33.0 +23.7 58 +44 +50 опасность
перегрева
1007.5 1001.3
15 17.03 Ю 3 20 км зарница {гроза} 4/1 450 м
[Cb cap Cs]
+25.5 +24.2 93 +35 +35 очень
душно
1009.1 1002.8
18 17.03 Ю 4 25 км мгла 3/1 450 м
[Cu hum]
+25.3 +23.8 91 +34 +34 очень
душно
1008.2 1001.9
00 18.03 СВ 3 25 км мгла 6/3 600 м
[Cu Sc Cs]
+32.4 +25.1 65 +46 +56 опасность
перегрева
1009.7 1003.5 +25.5
03 18.03 СВ 6 20 км гроза без осадков 9/4 600 м
[Cb cap Ac As Cs]
+31.5 +24.7 67 +44 +45 опасность
перегрева
1006.5 1000.3
06 18.03 СВ 1 25 км осадки на расстоянии {гроза} 9/3 500 м
[Cb cap Ac trans Cs]
+30.2 +24.6 72 +43 +44 опасность
перегрева
1006.4 1000.2
09 18.03 Ю 3 20 км зарница 9/4 480 м
[Cb cap Ac trans Cs]
+27.5 +25.4 88 +40 +40 очень
душно
1008.8 1002.5
12 18.03 Ю 1 20 км зарница {гроза} 9/3 450 м
[Cb cap Ac trans Cs]
+26.5 +24.6 89 +37 +37 очень
душно
1010.0 1003.7 +33.4
15 18.03 Ю 3 25 км мгла 6/1 450 м
[Cu med, cong Cs]
+26.0 +24.6 92 +37 +37 очень
душно
1007.8 1001.5
18 18.03 Ю 3 25 км мгла 1/1 450 м
[Cu med, cong]
+25.0 +23.5 91 +34 +34 очень
душно
1006.8 1000.5
21 18.03 Ю 3 25 км мгла 6/1 540 м
[Cu med, cong Cs]
+27.0 +24.0 84 +37 +39 очень
душно
1009.0 1002.7
00 19.03 С 2 25 км осадки на расстоянии 9/5 600 м
[Cb cap Cs]
+32.0 +25.9 70 +47 +56 опасность
перегрева
1009.4 1003.2 +25.0
03 19.03 С 2 20 км в посл. час ливневой дождь 10/8 540 м
[Cb cap Ac As]
+29.5 +26.0 81 +44 +45 опасность
перегрева
1007.1 1000.9 7
06 19.03 Ю 5 10 км слаб. ливневой дождь 10/10 480 м
[Cb cap]
+24.5 +23.0 91 +32 +33 очень
душно
1008.8 1002.4 40
09 19.03 Ю 4 10 км слаб. морось {дождь} 10/5 480 м
[Cu Sc Ac As]
+23.7 +22.5 93 +31 +31 очень
душно
1009.0 1002.6 37
12 19.03 Ю 4 20 км осадки на расстоянии {ливн. осадки} 10/4 450 м
[Cu Sc Ac As]
+24.5 +22.3 88 +32 +32 очень
душно
1010.1 1003.7 +32.7 2
15 19.03 Ю 4 25 км осадки на расстоянии 8/1 450 м
[Cu Sc Ac trans Cs]
+23.5 +22.0 91 +30 +30 очень
душно
1007.6 1001.2
18 19.03 Ю 4 25 км мгла 9/3 450 м
[Cu Sc Ac trans Cs]
+23.4 +21.8 91 +32 +32 очень
душно
1007.5 1001.1
21 19.03 Ю 2 25 км мгла 4/1 450 м
[Cu Sc Ac trans Cs]
+25.5 +22.5 83 +33 +36 очень
душно
1009.2 1002.9
00 20.03 СВ 3 25 км мгла 8/1 540 м
[Cu med, cong Ac trans Cs]
+31.0 +24.6 69 +44 +52 опасность
перегрева
1010.1 1003.9 +23.5 79
03 20.03 Ю 3 25 км осадки на расстоянии 9/4 500 м
[Cb cap Ac As]
+28.0 +23.7 77 +38 +40 очень
душно
1007.8 1001.5
06 20.03 штиль 0 25 км в посл. час ливневой дождь 10/4 480 м
[Cb cap Ac trans Cs]
+25.0 +24.3 96 +35 +36 очень
душно
1007.8 1001.5 3
12 20.03 Ю 4 25 км осадки на расстоянии 9/3 450 м
[Cb cap Ac und]
+24.5 +23.5 94 +33 +33 очень
душно
1009.7 1003.3 +32.0
15 20.03 Ю 3 30 км 6/1 450 м
[Cu med, cong Ac trans Cs]
+24.2 +22.5 90 +32 +32 очень
душно
1008.2 1001.8
18 20.03 Ю 3 30 км 6/1 450 м
[Cb cap Ac trans Cs]
+23.1 +22.7 98 +32 +32 очень
душно
1008.0 1001.6
21 20.03 Ю 2 30 км 9/3 480 м
[Cb cap Ac trans Cs]
+25.0 +22.8 88 +33 +34 очень
душно
1009.5 1003.2
00 21.03 СВ 4 25 км осадки на расстоянии 5/4 570 м
[Cb cap Ac trans Ci sp]
+30.0 +25.2 76 +44 +51 опасность
перегрева
1010.0 1003.8 +24.0 3
03 21.03 С 3 25 км осадки на расстоянии 8/4 540 м
[Cb cap Ac trans Cs]
+31.6 +24.5 66 +44 +47 опасность
перегрева
1007.5 1001.3
06 21.03 С 3 25 км осадки на расстоянии 8/3 570 м
[Cb cap Ac trans Cs]
+31.5 +26.2 74 +48 +49 опасность
перегрева
1006.7 1000.5
09 21.03 Ю 2 25 км осадки на расстоянии {ливн. осадки} 9/1 500 м
[Cu Sc Ac trans Cs]
+26.5 +25.8 96 +39 +39 очень
душно
1009.1 1002.8 2
12 21.03 Ю 3 25 км осадки на расстоянии {ливн. осадки} 6/3 480 м
[Cu Sc Ac trans Cs]
+26.0 +24.6 92 +37 +37 очень
душно
1010.8 1004.5 +32.4 2
15 21.03 Ю 3 20 км осадки на расстоянии 8/3 450 м
[Cu Sc Ac As Cs]
+25.4 +23.7 90 +35 +35 очень
душно
1009.1 1002.8
18 21.03 Ю 3 20 км мгла 6/1 450 м
[Cu Sc Ac trans Cs]
+24.7 +22.9 90 +33 +33 очень
душно
1008.8 1002.5
21 21.03 Ю 3 30 км 5/1 540 м
[Cu Sc Ac trans Cs]
+27.0 +24.1 84 +37 +39 очень
душно
1010.4 1004.1
00 22.03 СВ 3 30 км 5/3 540 м
[Cb cap Ac trans Cs]
+30.9 +25.0 71 +44 +54 опасность
перегрева
1010.3 1004.1 +24.6 2
03 22.03 С 3 30 км осадки на расстоянии 3/3 600 м
[Cb cap Cs]
+33.0 +25.3 64 +47 +61 опасность
перегрева
1007.7 1001.5
06 22.03 С 1 25 км осадки на расстоянии 9/4 570 м
[Cb cap Ac trans Cs]
+30.7 +25.4 73 +45 +46 опасность
перегрева
1007.4 1001.2
09 22.03 Ю 1 25 км мгла 5/3 500 м
[Cu Sc Ac trans Cs]
+27.5 +26.1 92 +41 +41 опасность
перегрева
1009.6 1003.3
12 22.03 Ю 3 25 км осадки на расстоянии 8/3 480 м
[Cb cap Ac trans Cs]
+26.3 +25.1 93 +38 +38 очень
душно
1010.7 1004.4 +33.7
15 22.03 Ю 2 25 км мгла 5/1 450 м
[Cu med, cong Cs]
+25.0 +23.8 93 +34 +34 очень
душно
1009.1 1002.8
18 22.03 Ю 3 25 км в посл. час ливневой дождь 8/4 450 м
[Cu Sc Cs]
+24.9 +24.0 95 +34 +34 очень
душно
1008.7 1002.4 0.6
00 23.03 С 2 25 км мгла 6/1 630 м
[Cu Sc Ac trans Cs]
+31.5 +25.9 72 +47 +59 опасность
перегрева
1010.7 1004.5 +24.6 0.6
03 23.03 С 2 25 км мгла 4/1 630 м
[Cu Sc Cs]
+32.0 +23.4 60 +43 +53 опасность
перегрева
1008.2 1002.0
06 23.03 С 2 25 км мгла 5/1 600 м
[Cb cap Cs]
+31.5 +24.8 68 +45 +47 опасность
перегрева
1007.9 1001.7
09 23.03 Ю 1 25 км зарница 5/3 480 м
[Cb cap Ac trans Cs]
+27.7 +23.4 77 +37 +37 очень
душно
1010.1 1003.8
12 23.03 С 3 20 км осадки на расстоянии {ливн. осадки} 9/6 450 м
[Cb cap Ac trans Cs]
+27.9 +24.6 82 +39 +39 очень
душно
1011.2 1004.9 +33.2 0.4
15 23.03 штиль 0 10 км слаб. ливневой дождь 10/5 450 м
[Cu Sc Ac As]
+25.5 +24.1 92 +35 +35 очень
душно
1009.6 1003.3 0.6
18 23.03 Ю 2 20 км в посл. час ливневой дождь 10/4 450 м
[Cu Sc Ac As]
+25.0 +23.5 91 +34 +34 очень
душно
1009.1 1002.8 13
21 23.03 Ю 3 25 км осадки на расстоянии 10/8
[Cu Sc Ac As Cs]
+25.3 +24.1 93 +35 +35 очень
душно
1010.5 1004.2
00 24.03 С 3 25 км мгла 9/9
[Cu med, cong Ac trans Cs]
+30.5 +25.3 74 +44 +51 опасность
перегрева
1011.3 1005.1 +24.5 17

 

Местоположение метеостанции Хониара (Соломоновы Острова): широта -9.42 долгота 159.97 высота над уровнем моря 55 м.

В архиве по умолчанию представлена погода в Хониаре за последнюю неделю. Архивные данные за месяц целиком и за предыдущие месяцы, начиная с января 2011 года, Вы можете получить, выбрав интересующий диапазон дат из раскрывающегося списка и нажав кнопку "Ввод!".


*Определитесь, кто Вы:
робот инопланетянин человек

Внимание! Время в таблицах - всемирное. Для получения местного времени необходимо прибавить поправку, которая равна 11 ч.

Смотрите также архив погоды в соседних городах и на ближайших метеорологических станциях:

Погода в Хониара аэропорту (Соломоновы Острова) (9 км)
Погода в Ауки (Соломоновы Острова) (110 км)
Погода в Манде (Соломоновы Острова) (322 км)
Погода на Острове Таро (Соломоновы Острова) (495 км)
Погода на Островах Санта-Круз (Соломоновы Острова) (653 км)
Погода на Мисиме (Папуа Новая Гвинея) (794 км)
Погода на Линуа (Вануату) (845 км)
Погода в Соле (Вануату) (961 км)
Погода в Токуа (Папуа Новая Гвинея) (1013 км)
Погода в Санто-Пекоа (Вануату) (1037 км)

Пояснения к столбцам:

Ветер - указаны скорость ветра в м/с - средняя за 10 мин, порывы в срок и между сроками (в фигурных скобках) и направление, откуда дует ветер: С - северный, СВ - северо-восточный, В - восточный, ЮВ - юго-восточный, Ю - южный, ЮЗ - юго-западный, З - западный, СЗ - северо-западный.
Видимость - горизонтальная дальность видимости в метрах или километрах. При видимости от 1 до 10 км при отсутствии осадков обычно наблюдается дымка, при ухудшении видимости до 1 км и менее - туман. В сухую погоду видимость может ухудшаться дымом, пылью или мглою.
Явления - указаны атмосферные явления, наблюдавшиеся в срок или в последний час перед сроком; фигурными скобками обозначены явления, наблюдавшиеся между сроками (за 1-3 часа до срока); квадратными скобками обозначены град или гололедные отложения с указанием их диаметра в мм.
Облачность - указаны через наклонную черту общая и нижняя облачность в баллах и высота нижней границы облаков в метрах; квадратными скобками обозначены формы облаков: Ci - перистые, Cs - перисто-слоистые, Cc - перисто-кучевые, Ac - высококучевые, As - высокослоистые, Sc - слоисто-кучевые, Ns - слоисто-дождевые, Cu - кучевые, Cb - кучево-дождевые. Подробнее классификацию облаков см. в Атласе облаков (PDF).
T - Температура воздуха - температура, измеренная на высоте 2 м над землей.
Td - Температура точки росы - температура, при понижении до которой содержащийся в воздухе водяной пар достигнет насыщения.
f - Относительная влажность воздуха - влажноcть воздуха, измеренная на высоте 2 м над землей.
Te - Эффективная температура - температура, которую ощущает одетый по сезону человек в тени. Характеристика душности погоды. При расчете учитывается влияние влажности воздуха и скорости ветра на теплоощущения человека.
Tes - Эффективная температура на солнце - температура, которую ощущает человек, с поправкой на солнечный нагрев. Характеристика знойности погоды. Зависит от высоты солнца над горизонтом, облачности и скорости ветра. Ночью, в пасмурную погоду, а также при ветре 12 м/с и более поправка равна нулю.
P - Атмосферное давление - приведенное к уровню моря атмосферное давление.
Po - Атмосферное давление - измеренное на уровне метеостанции атмосферное давление.
Tmin - Минимальная температура - минимум температуры воздуха на высоте 2 м над землей.
Tmax - Максимальная температура - максимум температуры воздуха на высоте 2 м над землей.
R - Количество осадков - Количество выпавших осадков за период времени, мм. При наведении курсора мыши на число - период времени, за который выпало указанное количество осадков.
R24 - Количество осадков - Количество выпавших осадков за 24 часа, мм.
S - Снежный покров - Высота снежного покрова, см. При наведении курсора мыши на число - состояние снежного покрова и степень покрытия местности в баллах.